Time,TemperatureF,DewpointF,PressureIn,WindDirection,WindDirectionDegrees,WindSpeedMPH,WindSpeedGustMPH,Humidity,HourlyPrecipIn,Conditions,Clouds,dailyrainin,SoftwareType,DateUTC
2013-06-10 00:02:00,74.0,57.0,29.87,SW,217,0.0,-999.0,55,-99.99,,,-99.99,,2013-06-10 05:02:00,
2013-06-10 00:12:00,74.0,57.0,29.87,SW,217,0.0,-999.0,55,-99.99,,,-99.99,,2013-06-10 05:12:00,
2013-06-10 00:22:00,74.0,58.0,29.87,SSW,209,0.0,-999.0,57,-99.99,,,-99.99,,2013-06-10 05:22:00,
2013-06-10 00:32:00,73.0,57.0,29.87,South,182,0.0,-999.0,58,-99.99,,,-99.99,,2013-06-10 05:32:00,
2013-06-10 00:42:00,73.0,57.0,29.87,South,182,0.0,-999.0,58,-99.99,,,-99.99,,2013-06-10 05:42:00,
2013-06-10 00:52:00,73.0,58.0,29.87,SSW,193,0.0,-999.0,59,-99.99,,,-99.99,,2013-06-10 05:52:00,
2013-06-10 01:02:00,73.0,58.0,29.87,SW,216,0.0,-999.0,60,-99.99,,,-99.99,,2013-06-10 06:02:00,
2013-06-10 01:12:00,73.0,58.0,29.87,SW,216,0.0,-999.0,60,-99.99,,,-99.99,,2013-06-10 06:12:00,
2013-06-10 01:22:00,73.0,60.0,29.87,SSW,200,0.0,-999.0,63,-99.99,,,-99.99,,2013-06-10 06:22:00,
2013-06-10 01:32:00,73.0,60.0,29.87,SSW,200,0.0,-999.0,64,-99.99,,,-99.99,,2013-06-10 06:32:00,
2013-06-10 01:42:00,73.0,60.0,29.87,SSW,200,0.0,-999.0,64,-99.99,,,-99.99,,2013-06-10 06:42:00,
2013-06-10 01:53:00,72.0,60.0,29.88,SSW,193,0.0,-999.0,66,-99.99,,,-99.99,,2013-06-10 06:53:00,
2013-06-10 02:02:00,72.0,61.0,29.88,SW,219,0.0,-999.0,68,-99.99,,,-99.99,,2013-06-10 07:02:00,
2013-06-10 02:12:00,72.0,61.0,29.88,SW,219,0.0,-999.0,68,-99.99,,,-99.99,,2013-06-10 07:12:00,
2013-06-10 02:22:00,71.0,61.0,29.87,SW,219,0.0,-999.0,70,-99.99,,,-99.99,,2013-06-10 07:22:00,
2013-06-10 02:32:00,71.0,62.0,29.87,SW,219,0.0,-999.0,72,-99.99,,,-99.99,,2013-06-10 07:32:00,
2013-06-10 02:42:00,71.0,62.0,29.87,SW,219,0.0,-999.0,72,-99.99,,,-99.99,,2013-06-10 07:42:00,
2013-06-10 02:52:00,71.0,62.0,29.87,SW,220,0.0,-999.0,74,-99.99,,,-99.99,,2013-06-10 07:52:00,
2013-06-10 03:02:00,71.0,62.0,29.87,SW,222,0.0,-999.0,74,-99.99,,,-99.99,,2013-06-10 08:02:00,
2013-06-10 03:12:00,71.0,62.0,29.87,SW,222,0.0,-999.0,74,-99.99,,,-99.99,,2013-06-10 08:12:00,
2013-06-10 03:22:00,71.0,63.0,29.87,SSW,203,0.0,-999.0,75,-99.99,,,-99.99,,2013-06-10 08:22:00,
2013-06-10 03:32:00,71.0,62.0,29.87,WSW,247,0.0,-999.0,74,-99.99,,,-99.99,,2013-06-10 08:32:00,
2013-06-10 03:42:00,71.0,62.0,29.87,WSW,247,0.0,-999.0,74,-99.99,,,-99.99,,2013-06-10 08:42:00,
2013-06-10 03:52:00,71.0,62.0,29.88,SW,229,0.0,-999.0,74,-99.99,,,-99.99,,2013-06-10 08:52:00,
2013-06-10 04:02:00,72.0,63.0,29.88,WSW,240,0.0,-999.0,73,-99.99,,,-99.99,,2013-06-10 09:02:00,
2013-06-10 04:12:00,72.0,63.0,29.88,WSW,240,0.0,-999.0,73,-99.99,,,-99.99,,2013-06-10 09:12:00,
2013-06-10 04:22:00,72.0,63.0,29.88,SW,226,0.0,-999.0,74,-99.99,,,-99.99,,2013-06-10 09:22:00,
2013-06-10 04:32:00,71.0,62.0,29.88,SW,224,0.0,-999.0,74,-99.99,,,-99.99,,2013-06-10 09:32:00,
2013-06-10 04:42:00,71.0,62.0,29.88,SW,224,0.0,-999.0,74,-99.99,,,-99.99,,2013-06-10 09:42:00,
2013-06-10 04:53:00,71.0,63.0,29.88,SW,224,0.0,-999.0,75,-99.99,,,-99.99,,2013-06-10 09:53:00,
2013-06-10 05:03:00,71.0,63.0,29.88,SW,224,0.0,-999.0,75,-99.99,,,-99.99,,2013-06-10 10:03:00,
2013-06-10 05:12:00,71.0,63.0,29.88,SW,224,0.0,-999.0,76,-99.99,,,-99.99,,2013-06-10 10:12:00,
2013-06-10 05:22:00,71.0,63.0,29.88,SW,224,0.0,-999.0,76,-99.99,,,-99.99,,2013-06-10 10:22:00,
2013-06-10 05:33:00,71.0,63.0,29.88,SW,224,0.0,-999.0,77,-99.99,,,-99.99,,2013-06-10 10:33:00,
2013-06-10 05:42:00,71.0,63.0,29.88,SW,224,0.0,-999.0,77,-99.99,,,-99.99,,2013-06-10 10:42:00,
2013-06-10 05:52:00,70.0,62.0,29.88,SW,224,0.0,-999.0,77,-99.99,,,-99.99,,2013-06-10 10:52:00,
2013-06-10 06:02:00,70.0,63.0,29.88,SW,226,0.0,-999.0,78,-99.99,,,-99.99,,2013-06-10 11:02:00,
2013-06-10 06:12:00,70.0,63.0,29.88,SW,226,0.0,-999.0,78,-99.99,,,-99.99,,2013-06-10 11:12:00,
2013-06-10 06:22:00,70.0,63.0,29.89,SW,227,0.0,-999.0,79,-99.99,,,-99.99,,2013-06-10 11:22:00,
2013-06-10 06:32:00,70.0,64.0,29.89,SW,227,0.0,-999.0,80,-99.99,,,-99.99,,2013-06-10 11:32:00,
2013-06-10 06:42:00,70.0,64.0,29.89,SW,227,0.0,-999.0,80,-99.99,,,-99.99,,2013-06-10 11:42:00,
2013-06-10 06:52:00,70.0,64.0,29.90,SW,227,0.0,-999.0,80,-99.99,,,-99.99,,2013-06-10 11:52:00,
2013-06-10 07:02:00,70.0,64.0,29.90,SW,227,0.0,-999.0,80,-99.99,,,-99.99,,2013-06-10 12:02:00,
2013-06-10 07:12:00,70.0,64.0,29.90,SW,227,0.0,-999.0,80,-99.99,,,-99.99,,2013-06-10 12:12:00,
2013-06-10 07:22:00,70.0,64.0,29.90,SSE,157,0.0,-999.0,81,-99.99,,,-99.99,,2013-06-10 12:22:00,
2013-06-10 07:32:00,70.0,63.0,29.90,SSW,208,0.0,-999.0,79,-99.99,,,-99.99,,2013-06-10 12:32:00,
2013-06-10 07:42:00,72.0,64.0,29.91,WNW,282,0.0,-999.0,75,-99.99,,,-99.99,,2013-06-10 12:42:00,
2013-06-10 07:52:00,72.0,64.0,29.91,WNW,282,0.0,-999.0,75,-99.99,,,-99.99,,2013-06-10 12:52:00,
2013-06-10 08:02:00,74.0,65.0,29.91,WNW,282,0.0,-999.0,73,-99.99,,,-99.99,,2013-06-10 13:02:00,
2013-06-10 08:12:00,74.0,65.0,29.91,WNW,282,0.0,-999.0,73,-99.99,,,-99.99,,2013-06-10 13:12:00,
2013-06-10 08:22:00,75.0,65.0,29.91,South,175,0.0,-999.0,70,-99.99,,,-99.99,,2013-06-10 13:22:00,
2013-06-10 08:32:00,75.0,65.0,29.91,SW,222,1.0,-999.0,70,-99.99,,,-99.99,,2013-06-10 13:32:00,
2013-06-10 08:42:00,77.0,66.0,29.92,SW,229,0.0,-999.0,69,-99.99,,,-99.99,,2013-06-10 13:42:00,
2013-06-10 08:52:00,77.0,66.0,29.92,SW,229,0.0,-999.0,69,-99.99,,,-99.99,,2013-06-10 13:52:00,
2013-06-10 09:02:00,78.0,66.0,29.92,WNW,292,1.0,-999.0,67,-99.99,,,-99.99,,2013-06-10 14:02:00,
2013-06-10 09:12:00,80.0,67.0,29.93,SSW,202,0.0,-999.0,64,-99.99,,,-99.99,,2013-06-10 14:12:00,
2013-06-10 09:22:00,80.0,67.0,29.93,SSW,202,0.0,-999.0,64,-99.99,,,-99.99,,2013-06-10 14:22:00,
2013-06-10 09:32:00,80.0,66.0,29.93,South,188,1.0,-999.0,63,-99.99,,,-99.99,,2013-06-10 14:32:00,
2013-06-10 09:42:00,81.0,67.0,29.93,WSW,247,0.0,-999.0,62,-99.99,,,-99.99,,2013-06-10 14:42:00,
2013-06-10 09:52:00,81.0,67.0,29.93,WSW,247,0.0,-999.0,62,-99.99,,,-99.99,,2013-06-10 14:52:00,
2013-06-10 10:02:00,81.0,66.0,29.93,West,281,1.0,-999.0,60,-99.99,,,-99.99,,2013-06-10 15:02:00,
2013-06-10 10:12:00,82.0,67.0,29.93,West,272,1.0,-999.0,61,-99.99,,,-99.99,,2013-06-10 15:12:00,
2013-06-10 10:22:00,82.0,67.0,29.93,West,272,1.0,-999.0,61,-99.99,,,-99.99,,2013-06-10 15:22:00,
2013-06-10 10:33:00,82.0,67.0,29.93,West,271,1.0,-999.0,61,-99.99,,,-99.99,,2013-06-10 15:33:00,
2013-06-10 10:43:00,83.0,67.0,29.93,WSW,244,1.0,-999.0,58,-99.99,,,-99.99,,2013-06-10 15:43:00,
2013-06-10 10:53:00,83.0,67.0,29.93,WSW,244,1.0,-999.0,58,-99.99,,,-99.99,,2013-06-10 15:53:00,
2013-06-10 11:03:00,85.0,69.0,29.93,SW,229,0.0,-999.0,58,-99.99,,,-99.99,,2013-06-10 16:03:00,
2013-06-10 11:12:00,86.0,67.0,29.93,SE,133,0.0,-999.0,54,-99.99,,,-99.99,,2013-06-10 16:12:00,
2013-06-10 11:23:00,86.0,67.0,29.93,SE,133,0.0,-999.0,54,-99.99,,,-99.99,,2013-06-10 16:23:00,
2013-06-10 11:33:00,86.0,68.0,29.93,SSW,208,1.0,-999.0,55,-99.99,,,-99.99,,2013-06-10 16:33:00,
2013-06-10 11:42:00,87.0,68.0,29.92,WSW,257,0.0,-999.0,54,-99.99,,,-99.99,,2013-06-10 16:42:00,
2013-06-10 11:53:00,87.0,68.0,29.92,WSW,257,0.0,-999.0,54,-99.99,,,-99.99,,2013-06-10 16:53:00,
2013-06-10 12:03:00,87.0,68.0,29.92,West,268,0.0,-999.0,53,-99.99,,,-99.99,,2013-06-10 17:03:00,
2013-06-10 12:14:00,88.0,66.0,29.91,WSW,239,1.0,-999.0,48,-99.99,,,-99.99,,2013-06-10 17:14:00,
2013-06-10 12:27:00,88.0,66.0,29.91,WSW,239,1.0,-999.0,48,-99.99,,,-99.99,,2013-06-10 17:27:00,
2013-06-10 12:38:00,89.0,68.0,29.91,South,179,0.0,-999.0,50,-99.99,,,-99.99,,2013-06-10 17:38:00,
2013-06-10 12:48:00,90.0,67.0,29.91,SSE,158,0.0,-999.0,47,-99.99,,,-99.99,,2013-06-10 17:48:00,
2013-06-10 12:58:00,90.0,67.0,29.91,SSE,158,0.0,-999.0,47,-99.99,,,-99.99,,2013-06-10 17:58:00,
2013-06-10 13:07:00,90.0,66.0,29.91,WSW,247,1.0,-999.0,46,-99.99,,,-99.99,,2013-06-10 18:07:00,
2013-06-10 13:14:00,90.0,68.0,29.90,South,171,1.0,-999.0,48,-99.99,,,-99.99,,2013-06-10 18:14:00,
2013-06-10 13:24:00,90.0,68.0,29.90,South,171,1.0,-999.0,48,-99.99,,,-99.99,,2013-06-10 18:24:00,
2013-06-10 13:34:00,90.0,67.0,29.90,SW,234,1.0,-999.0,47,-99.99,,,-99.99,,2013-06-10 18:34:00,
2013-06-10 13:48:00,92.0,66.0,29.89,SSW,205,0.0,-999.0,43,-99.99,,,-99.99,,2013-06-10 18:48:00,
2013-06-10 13:55:00,92.0,66.0,29.89,SSW,205,0.0,-999.0,43,-99.99,,,-99.99,,2013-06-10 18:55:00,
2013-06-10 14:03:00,92.0,67.0,29.89,SW,223,1.0,-999.0,44,-99.99,,,-99.99,,2013-06-10 19:03:00,
2013-06-10 14:12:00,92.0,66.0,29.89,SW,232,1.0,-999.0,42,-99.99,,,-99.99,,2013-06-10 19:12:00,
2013-06-10 14:22:00,92.0,66.0,29.89,SW,232,1.0,-999.0,42,-99.99,,,-99.99,,2013-06-10 19:22:00,
2013-06-10 14:32:00,93.0,66.0,29.89,SW,224,1.0,-999.0,41,-99.99,,,-99.99,,2013-06-10 19:32:00,
2013-06-10 14:42:00,93.0,64.0,29.88,SSW,210,1.0,-999.0,39,-99.99,,,-99.99,,2013-06-10 19:42:00,
2013-06-10 14:53:00,93.0,64.0,29.88,SSW,210,1.0,-999.0,39,-99.99,,,-99.99,,2013-06-10 19:53:00,
2013-06-10 15:03:00,93.0,64.0,29.88,SSW,202,1.0,-999.0,38,-99.99,,,-99.99,,2013-06-10 20:03:00,
2013-06-10 15:12:00,93.0,64.0,29.88,SSW,202,1.0,-999.0,38,-99.99,,,-99.99,,2013-06-10 20:12:00,
2013-06-10 15:22:00,94.0,64.0,29.88,WSW,248,1.0,-999.0,37,-99.99,,,-99.99,,2013-06-10 20:22:00,
2013-06-10 15:32:00,94.0,64.0,29.88,WSW,246,1.0,-999.0,38,-99.99,,,-99.99,,2013-06-10 20:32:00,
2013-06-10 15:43:00,94.0,64.0,29.88,WSW,246,1.0,-999.0,38,-99.99,,,-99.99,,2013-06-10 20:43:00,
2013-06-10 15:52:00,94.0,64.0,29.87,SSW,208,1.0,-999.0,38,-99.99,,,-99.99,,2013-06-10 20:52:00,
2013-06-10 16:02:00,93.0,62.0,29.87,WSW,256,1.0,-999.0,36,-99.99,,,-99.99,,2013-06-10 21:02:00,
2013-06-10 16:12:00,95.0,66.0,29.86,WSW,257,1.0,-999.0,39,-99.99,,,-99.99,,2013-06-10 21:12:00,
2013-06-10 16:22:00,95.0,66.0,29.86,WSW,257,1.0,-999.0,39,-99.99,,,-99.99,,2013-06-10 21:22:00,
2013-06-10 16:33:00,95.0,65.0,29.86,West,265,1.0,-999.0,38,-99.99,,,-99.99,,2013-06-10 21:33:00,
2013-06-10 16:43:00,95.0,65.0,29.85,West,270,1.0,-999.0,38,-99.99,,,-99.99,,2013-06-10 21:43:00,
2013-06-10 16:53:00,95.0,65.0,29.85,West,270,1.0,-999.0,38,-99.99,,,-99.99,,2013-06-10 21:53:00,
2013-06-10 17:03:00,95.0,65.0,29.85,West,280,0.0,-999.0,37,-99.99,,,-99.99,,2013-06-10 22:03:00,
2013-06-10 17:13:00,94.0,65.0,29.85,West,272,1.0,-999.0,39,-99.99,,,-99.99,,2013-06-10 22:13:00,
2013-06-10 17:22:00,94.0,65.0,29.85,West,272,1.0,-999.0,39,-99.99,,,-99.99,,2013-06-10 22:22:00,
2013-06-10 17:33:00,95.0,66.0,29.85,SSW,198,0.0,-999.0,39,-99.99,,,-99.99,,2013-06-10 22:33:00,
2013-06-10 17:42:00,94.0,63.0,29.85,SSW,195,1.0,-999.0,36,-99.99,,,-99.99,,2013-06-10 22:42:00,
2013-06-10 17:52:00,94.0,63.0,29.85,SSW,195,1.0,-999.0,36,-99.99,,,-99.99,,2013-06-10 22:52:00,
2013-06-10 18:02:00,94.0,64.0,29.85,SW,226,1.0,-999.0,37,-99.99,,,-99.99,,2013-06-10 23:02:00,
2013-06-10 18:12:00,94.0,63.0,29.85,SSW,193,1.0,-999.0,36,-99.99,,,-99.99,,2013-06-10 23:12:00,
2013-06-10 18:22:00,94.0,63.0,29.85,SSW,193,1.0,-999.0,36,-99.99,,,-99.99,,2013-06-10 23:22:00,
2013-06-10 18:32:00,94.0,64.0,29.85,SSW,200,1.0,-999.0,38,-99.99,,,-99.99,,2013-06-10 23:32:00,
2013-06-10 18:42:00,94.0,65.0,29.85,SW,219,0.0,-999.0,39,-99.99,,,-99.99,,2013-06-10 23:42:00,
2013-06-10 18:52:00,94.0,65.0,29.85,SW,219,0.0,-999.0,39,-99.99,,,-99.99,,2013-06-10 23:52:00,
2013-06-10 19:02:00,93.0,64.0,29.85,SSW,213,0.0,-999.0,38,-99.99,,,-99.99,,2013-06-11 00:02:00,
2013-06-10 19:12:00,93.0,64.0,29.85,South,179,0.0,-999.0,38,-99.99,,,-99.99,,2013-06-11 00:12:00,
2013-06-10 19:22:00,93.0,64.0,29.85,South,179,0.0,-999.0,38,-99.99,,,-99.99,,2013-06-11 00:22:00,
2013-06-10 19:32:00,92.0,64.0,29.85,SW,215,0.0,-999.0,40,-99.99,,,-99.99,,2013-06-11 00:32:00,
2013-06-10 19:42:00,92.0,66.0,29.85,South,174,0.0,-999.0,42,-99.99,,,-99.99,,2013-06-11 00:42:00,
2013-06-10 19:52:00,92.0,66.0,29.85,South,174,0.0,-999.0,42,-99.99,,,-99.99,,2013-06-11 00:52:00,
2013-06-10 20:02:00,91.0,65.0,29.85,South,179,0.0,-999.0,43,-99.99,,,-99.99,,2013-06-11 01:02:00,
2013-06-10 20:12:00,90.0,66.0,29.86,SSW,202,0.0,-999.0,45,-99.99,,,-99.99,,2013-06-11 01:12:00,
2013-06-10 20:22:00,90.0,66.0,29.86,SSW,202,0.0,-999.0,45,-99.99,,,-99.99,,2013-06-11 01:22:00,
2013-06-10 20:32:00,89.0,65.0,29.86,SSW,200,0.0,-999.0,46,-99.99,,,-99.99,,2013-06-11 01:32:00,
2013-06-10 20:42:00,87.0,65.0,29.85,SSW,199,0.0,-999.0,49,-99.99,,,-99.99,,2013-06-11 01:42:00,
2013-06-10 20:52:00,87.0,65.0,29.85,SSW,199,0.0,-999.0,49,-99.99,,,-99.99,,2013-06-11 01:52:00,
2013-06-10 21:02:00,86.0,66.0,29.85,SSW,199,0.0,-999.0,51,-99.99,,,-99.99,,2013-06-11 02:02:00,
2013-06-10 21:12:00,85.0,66.0,29.85,South,182,0.0,-999.0,53,-99.99,,,-99.99,,2013-06-11 02:12:00,
2013-06-10 21:22:00,85.0,66.0,29.85,South,182,0.0,-999.0,53,-99.99,,,-99.99,,2013-06-11 02:22:00,
2013-06-10 21:32:00,84.0,66.0,29.85,South,185,0.0,-999.0,54,-99.99,,,-99.99,,2013-06-11 02:32:00,
2013-06-10 21:42:00,83.0,66.0,29.85,SE,138,0.0,-999.0,57,-99.99,,,-99.99,,2013-06-11 02:42:00,
2013-06-10 21:52:00,83.0,66.0,29.85,SE,138,0.0,-999.0,57,-99.99,,,-99.99,,2013-06-11 02:52:00,
2013-06-10 22:02:00,83.0,67.0,29.85,South,186,0.0,-999.0,59,-99.99,,,-99.99,,2013-06-11 03:02:00,
2013-06-10 22:12:00,82.0,67.0,29.87,South,178,0.0,-999.0,61,-99.99,,,-99.99,,2013-06-11 03:12:00,
2013-06-10 22:22:00,82.0,67.0,29.87,South,178,0.0,-999.0,61,-99.99,,,-99.99,,2013-06-11 03:22:00,
2013-06-10 22:32:00,82.0,68.0,29.87,SE,140,0.0,-999.0,62,-99.99,,,-99.99,,2013-06-11 03:32:00,
2013-06-10 22:43:00,81.0,68.0,29.88,South,171,0.0,-999.0,64,-99.99,,,-99.99,,2013-06-11 03:43:00,
2013-06-10 22:53:00,81.0,68.0,29.88,South,171,0.0,-999.0,64,-99.99,,,-99.99,,2013-06-11 03:53:00,
2013-06-10 23:02:00,81.0,68.0,29.88,SSE,161,0.0,-999.0,65,-99.99,,,-99.99,,2013-06-11 04:02:00,
2013-06-10 23:12:00,80.0,68.0,29.88,SSW,212,0.0,-999.0,67,-99.99,,,-99.99,,2013-06-11 04:12:00,
2013-06-10 23:23:00,80.0,68.0,29.88,SSW,212,0.0,-999.0,67,-99.99,,,-99.99,,2013-06-11 04:23:00,
2013-06-10 23:33:00,80.0,68.0,29.88,ESE,110,0.0,-999.0,67,-99.99,,,-99.99,,2013-06-11 04:33:00,
2013-06-10 23:42:00,80.0,68.0,29.88,ESE,110,0.0,-999.0,67,-99.99,,,-99.99,,2013-06-11 04:42:00,
2013-06-10 23:53:00,80.0,68.0,29.88,South,191,0.0,-999.0,66,-99.99,,,-99.99,,2013-06-11 04:53:00,